Tracking 30922 objects as of 2-Jul-2025
HD Live streaming from Space Station
objects crossing your sky now

ISTANBUL-1

Track ISTANBUL-1 now!
10-day predictions
ISTANBUL-1 is classified as:


NORAD ID: 56231
Int'l Code: 2023-084BQ
Perigee: 267.0 km
Apogee: 277.5 km
Inclination: 97.6 °
Period: 89.8 minutes
Semi major axis: 6643 km
RCS: Unknown
Launch date: June 12, 2023
Source: (TBD)
Launch site: AIR FORCE WESTERN TEST RANGE (AFWTR)

Uplink (MHz):
Downlink (MHz):
Beacon (MHz):
Mode:
Call sign:
Status: Unknown

Your satellite tracking list
Your tracking list is empty




NASA's NSSDC Master Catalog

Two Line Element Set (TLE):
1 56231U 23084BQ  25182.88955411  .00661155  21031-3  10731-2 0  9991
2 56231  97.5503 324.2891 0007883 256.5430 103.4971 16.03376783114867
Source of the keplerian elements: AFSPC